Year,Month,Day,Hour,Minute,Value (Times are PST for temperature in C)
2008,05,23,00,00,11.80
2008,05,23,00,01,11.80
2008,05,23,00,02,11.80
2008,05,23,00,03,11.80
2008,05,23,00,04,11.80
2008,05,23,00,05,11.70
2008,05,23,00,06,11.70
2008,05,23,00,07,11.70
2008,05,23,00,08,11.60
2008,05,23,00,09,11.60
2008,05,23,00,10,11.60
2008,05,23,00,11,11.50
2008,05,23,00,12,11.50
2008,05,23,00,13,11.40
2008,05,23,00,14,11.40
2008,05,23,00,15,11.40
2008,05,23,00,16,11.50
2008,05,23,00,17,11.50
2008,05,23,00,18,11.50
2008,05,23,00,19,11.50
2008,05,23,00,20,11.50
2008,05,23,00,21,11.60
2008,05,23,00,22,11.60
2008,05,23,00,23,11.60
2008,05,23,00,24,11.70
2008,05,23,00,25,11.70
2008,05,23,00,26,11.70
2008,05,23,00,27,11.60
2008,05,23,00,28,11.60
2008,05,23,00,29,11.60
2008,05,23,00,30,11.60
2008,05,23,00,31,11.60
2008,05,23,00,32,11.60
2008,05,23,00,33,11.60
2008,05,23,00,34,11.60
2008,05,23,00,35,11.60
2008,05,23,00,36,11.60
2008,05,23,00,37,11.60
2008,05,23,00,38,11.60
2008,05,23,00,39,11.60
2008,05,23,00,40,11.50
2008,05,23,00,41,11.50
2008,05,23,00,42,11.50
2008,05,23,00,43,11.50
2008,05,23,00,44,11.50
2008,05,23,00,45,11.50
2008,05,23,00,46,11.50
2008,05,23,00,47,11.50
2008,05,23,00,48,11.50
2008,05,23,00,49,11.50
2008,05,23,00,50,11.50
2008,05,23,00,51,11.50
2008,05,23,00,52,11.50
2008,05,23,00,53,11.50
2008,05,23,00,54,11.40
2008,05,23,00,55,11.40
2008,05,23,00,56,11.40
2008,05,23,00,57,11.40
2008,05,23,00,58,11.40
2008,05,23,00,59,11.30
2008,05,23,01,00,11.30
2008,05,23,01,01,11.20
2008,05,23,01,02,11.20
2008,05,23,01,03,11.20
2008,05,23,01,04,11.10
2008,05,23,01,05,11.10
2008,05,23,01,06,11.10
2008,05,23,01,07,11.20
2008,05,23,01,08,11.20
2008,05,23,01,09,11.10
2008,05,23,01,10,11.10
2008,05,23,01,11,11.10
2008,05,23,01,12,11.10
2008,05,23,01,13,11.10
2008,05,23,01,14,11.10
2008,05,23,01,15,11.00
2008,05,23,01,16,10.90
2008,05,23,01,17,10.90
2008,05,23,01,18,10.90
2008,05,23,01,19,10.80
2008,05,23,01,20,10.80
2008,05,23,01,21,10.80
2008,05,23,01,22,10.70
2008,05,23,01,23,10.70
2008,05,23,01,24,10.70
2008,05,23,01,25,10.80
2008,05,23,01,26,10.80
2008,05,23,01,27,10.80
2008,05,23,01,28,10.80
2008,05,23,01,29,10.80
2008,05,23,01,30,10.80
2008,05,23,01,31,10.80
2008,05,23,01,32,10.80
2008,05,23,01,33,10.80
2008,05,23,01,34,10.90
2008,05,23,01,35,10.90
2008,05,23,01,36,10.90
2008,05,23,01,37,10.90
2008,05,23,01,38,10.90
2008,05,23,01,39,10.90
2008,05,23,01,40,10.90
2008,05,23,01,41,10.90
2008,05,23,01,42,11.00
2008,05,23,01,43,11.00
2008,05,23,01,44,11.00
2008,05,23,01,45,11.10
2008,05,23,01,46,11.10
2008,05,23,01,47,11.10
2008,05,23,01,48,11.10
2008,05,23,01,49,11.20
2008,05,23,01,50,11.20
2008,05,23,01,51,11.20
2008,05,23,01,52,11.20
2008,05,23,01,53,11.20
2008,05,23,01,54,11.20
2008,05,23,01,55,11.20
2008,05,23,01,56,11.20
2008,05,23,01,57,11.20
2008,05,23,01,58,11.20
2008,05,23,01,59,11.20
2008,05,23,02,00,11.20
2008,05,23,02,01,11.20
2008,05,23,02,02,11.30
2008,05,23,02,03,11.30
2008,05,23,02,04,11.30
2008,05,23,02,05,11.30
2008,05,23,02,06,11.30
2008,05,23,02,07,11.30
2008,05,23,02,08,11.30
2008,05,23,02,09,11.30
2008,05,23,02,10,11.30
2008,05,23,02,11,11.30
2008,05,23,02,12,11.30
2008,05,23,02,13,11.30
2008,05,23,02,14,11.30
2008,05,23,02,15,11.30
2008,05,23,02,16,11.30
2008,05,23,02,17,11.30
2008,05,23,02,18,11.30
2008,05,23,02,19,11.30
2008,05,23,02,20,11.30
2008,05,23,02,21,11.30
2008,05,23,02,22,11.40
2008,05,23,02,23,11.40
2008,05,23,02,24,11.40
2008,05,23,02,25,11.50
2008,05,23,02,26,11.60
2008,05,23,02,27,11.60
2008,05,23,02,28,11.60
2008,05,23,02,29,11.60
2008,05,23,02,30,11.60
2008,05,23,02,31,11.70
2008,05,23,02,32,11.70
2008,05,23,02,33,11.70
2008,05,23,02,34,11.70
2008,05,23,02,35,11.70
2008,05,23,02,36,11.60
2008,05,23,02,37,11.60
2008,05,23,02,38,11.60
2008,05,23,02,39,11.60
2008,05,23,02,40,11.60
2008,05,23,02,41,11.60
2008,05,23,02,42,11.60
2008,05,23,02,43,11.60
2008,05,23,02,44,11.60
2008,05,23,02,45,11.60
2008,05,23,02,46,11.60
2008,05,23,02,47,11.60
2008,05,23,02,48,11.60
2008,05,23,02,49,11.50
2008,05,23,02,50,11.50
2008,05,23,02,51,11.50
2008,05,23,02,52,11.50
2008,05,23,02,53,11.50
2008,05,23,02,54,11.50
2008,05,23,02,55,11.50
2008,05,23,02,56,11.50
2008,05,23,02,57,11.50
2008,05,23,02,58,11.50
2008,05,23,02,59,11.50
2008,05,23,03,00,11.50
2008,05,23,03,01,11.40
2008,05,23,03,02,11.50
2008,05,23,03,03,11.50
2008,05,23,03,04,11.50
2008,05,23,03,05,11.50
2008,05,23,03,06,11.50
2008,05,23,03,07,11.50
2008,05,23,03,08,11.40
2008,05,23,03,09,11.40
2008,05,23,03,10,11.40
2008,05,23,03,11,11.40
2008,05,23,03,12,11.40
2008,05,23,03,13,11.40
2008,05,23,03,14,11.40
2008,05,23,03,15,11.40
2008,05,23,03,16,11.40
2008,05,23,03,17,11.40
2008,05,23,03,18,11.30
2008,05,23,03,19,11.30
2008,05,23,03,20,11.20
2008,05,23,03,21,11.20
2008,05,23,03,22,11.20
2008,05,23,03,23,11.20
2008,05,23,03,24,11.30
2008,05,23,03,25,11.30
2008,05,23,03,26,11.30
2008,05,23,03,27,11.30
2008,05,23,03,28,11.30
2008,05,23,03,29,11.30
2008,05,23,03,30,11.30
2008,05,23,03,31,11.30
2008,05,23,03,32,11.30
2008,05,23,03,33,11.30
2008,05,23,03,34,11.30
2008,05,23,03,35,11.20
2008,05,23,03,36,11.20
2008,05,23,03,37,11.20
2008,05,23,03,38,11.10
2008,05,23,03,39,11.10
2008,05,23,03,40,11.20
2008,05,23,03,41,11.20
2008,05,23,03,42,11.10
2008,05,23,03,43,11.10
2008,05,23,03,44,11.10
2008,05,23,03,45,11.10
2008,05,23,03,46,11.10
2008,05,23,03,47,11.20
2008,05,23,03,48,11.20
2008,05,23,03,49,11.20
2008,05,23,03,50,11.20
2008,05,23,03,51,11.30
2008,05,23,03,52,11.40
2008,05,23,03,53,11.40
2008,05,23,03,54,11.40
2008,05,23,03,55,11.40
2008,05,23,03,56,11.40
2008,05,23,03,57,11.50
2008,05,23,03,58,11.50
2008,05,23,03,59,11.40
2008,05,23,04,00,11.40
2008,05,23,04,01,11.40
2008,05,23,04,02,11.40
2008,05,23,04,03,11.40
2008,05,23,04,04,11.40
2008,05,23,04,05,11.40
2008,05,23,04,06,11.40
2008,05,23,04,07,11.40
2008,05,23,04,08,11.40
2008,05,23,04,09,11.50
2008,05,23,04,10,11.50
2008,05,23,04,11,11.50
2008,05,23,04,12,11.50
2008,05,23,04,13,11.50
2008,05,23,04,14,11.50
2008,05,23,04,15,11.50
2008,05,23,04,16,11.50
2008,05,23,04,17,11.50
2008,05,23,04,18,11.50
2008,05,23,04,19,11.50
2008,05,23,04,20,11.50
2008,05,23,04,21,11.60
2008,05,23,04,22,11.60
2008,05,23,04,23,11.60
2008,05,23,04,24,11.60
2008,05,23,04,25,11.60
2008,05,23,04,26,11.60
2008,05,23,04,27,11.60
2008,05,23,04,28,11.60
2008,05,23,04,29,11.60
2008,05,23,04,30,11.70
2008,05,23,04,31,11.70
2008,05,23,04,32,11.70
2008,05,23,04,33,11.70
2008,05,23,04,34,11.70
2008,05,23,04,35,11.70
2008,05,23,04,36,11.70
2008,05,23,04,37,11.70
2008,05,23,04,38,11.70
2008,05,23,04,39,11.70
2008,05,23,04,40,11.70
2008,05,23,04,41,11.70
2008,05,23,04,42,11.70
2008,05,23,04,43,11.70
2008,05,23,04,44,11.70
2008,05,23,04,45,11.70
2008,05,23,04,46,11.70
2008,05,23,04,47,11.70
2008,05,23,04,48,11.80
2008,05,23,04,49,11.80
2008,05,23,04,50,11.80
2008,05,23,04,51,11.80
2008,05,23,04,52,11.80
2008,05,23,04,53,11.80
2008,05,23,04,54,11.80
2008,05,23,04,55,11.80
2008,05,23,04,56,11.90
2008,05,23,04,57,11.90
2008,05,23,04,58,11.90
2008,05,23,04,59,11.90
2008,05,23,05,00,11.90
2008,05,23,05,01,11.80
2008,05,23,05,02,11.80
2008,05,23,05,03,11.80
2008,05,23,05,04,11.80
2008,05,23,05,05,11.80
2008,05,23,05,06,11.80
2008,05,23,05,07,11.80
2008,05,23,05,08,11.80
2008,05,23,05,09,11.80
2008,05,23,05,10,11.80
2008,05,23,05,11,11.80
2008,05,23,05,12,11.80
2008,05,23,05,13,11.80
2008,05,23,05,14,11.80
2008,05,23,05,15,11.80
2008,05,23,05,16,11.80
2008,05,23,05,17,11.90
2008,05,23,05,18,11.90
2008,05,23,05,19,11.90
2008,05,23,05,20,11.80
2008,05,23,05,21,11.80
2008,05,23,05,22,11.80
2008,05,23,05,23,11.80
2008,05,23,05,24,11.80
2008,05,23,05,25,11.80
2008,05,23,05,26,11.80
2008,05,23,05,27,11.80
2008,05,23,05,28,11.80
2008,05,23,05,29,11.80
2008,05,23,05,30,11.80
2008,05,23,05,31,11.80
2008,05,23,05,32,11.80
2008,05,23,05,33,11.80
2008,05,23,05,34,11.80
2008,05,23,05,35,11.80
2008,05,23,05,36,11.80
2008,05,23,05,37,11.80
2008,05,23,05,38,11.90
2008,05,23,05,39,11.90
2008,05,23,05,40,11.90
2008,05,23,05,41,11.90
2008,05,23,05,42,11.90
2008,05,23,05,43,11.90
2008,05,23,05,44,11.90
2008,05,23,05,45,11.80
2008,05,23,05,46,11.80
2008,05,23,05,47,11.80
2008,05,23,05,48,11.80
2008,05,23,05,49,11.80
2008,05,23,05,50,11.70
2008,05,23,05,51,11.70
2008,05,23,05,52,11.70
2008,05,23,05,53,11.70
2008,05,23,05,54,11.70
2008,05,23,05,55,11.70
2008,05,23,05,56,11.70
2008,05,23,05,57,11.70
2008,05,23,05,58,11.70
2008,05,23,05,59,11.70
2008,05,23,06,00,11.70
2008,05,23,06,01,11.70
2008,05,23,06,02,11.80
2008,05,23,06,03,11.80
2008,05,23,06,04,11.80
2008,05,23,06,05,11.80
2008,05,23,06,06,11.80
2008,05,23,06,07,11.80
2008,05,23,06,08,11.80
2008,05,23,06,09,11.80
2008,05,23,06,10,11.80
2008,05,23,06,11,11.80
2008,05,23,06,12,11.80
2008,05,23,06,13,11.80
2008,05,23,06,14,11.80
2008,05,23,06,15,11.80
2008,05,23,06,16,11.80
2008,05,23,06,17,11.90
2008,05,23,06,18,11.90
2008,05,23,06,19,11.90
2008,05,23,06,20,11.90
2008,05,23,06,21,11.90
2008,05,23,06,22,11.90
2008,05,23,06,23,11.90
2008,05,23,06,24,11.90
2008,05,23,06,25,11.90
2008,05,23,06,26,11.90
2008,05,23,06,27,11.90
2008,05,23,06,28,11.90
2008,05,23,06,29,11.90
2008,05,23,06,30,11.90
2008,05,23,06,31,11.90
2008,05,23,06,32,11.90
2008,05,23,06,33,12.00
2008,05,23,06,34,12.00
2008,05,23,06,35,12.00
2008,05,23,06,36,12.00
2008,05,23,06,37,12.10
2008,05,23,06,38,12.10
2008,05,23,06,39,12.10
2008,05,23,06,40,12.10
2008,05,23,06,41,12.10
2008,05,23,06,42,12.20
2008,05,23,06,43,12.20
2008,05,23,06,44,12.20
2008,05,23,06,45,12.20
2008,05,23,06,46,12.30
2008,05,23,06,47,12.30
2008,05,23,06,48,12.30
2008,05,23,06,49,12.40
2008,05,23,06,50,12.40
2008,05,23,06,51,12.40
2008,05,23,06,52,12.40
2008,05,23,06,53,12.50
2008,05,23,06,54,12.50
2008,05,23,06,55,12.50
2008,05,23,06,56,12.60
2008,05,23,06,57,12.70
2008,05,23,06,58,12.70
2008,05,23,06,59,12.70
2008,05,23,07,00,12.80
2008,05,23,07,01,12.80
2008,05,23,07,02,12.80
2008,05,23,07,03,12.90
2008,05,23,07,04,12.90
2008,05,23,07,05,12.90
2008,05,23,07,06,12.90
2008,05,23,07,07,13.00
2008,05,23,07,08,13.00
2008,05,23,07,09,13.00
2008,05,23,07,10,13.10
2008,05,23,07,11,13.10
2008,05,23,07,12,13.10
2008,05,23,07,13,13.10
2008,05,23,07,14,13.10
2008,05,23,07,15,13.10
2008,05,23,07,16,13.10
2008,05,23,07,17,13.20
2008,05,23,07,18,13.20
2008,05,23,07,19,13.20
2008,05,23,07,20,13.20
2008,05,23,07,21,13.20
2008,05,23,07,22,13.20
2008,05,23,07,23,13.30
2008,05,23,07,24,13.30
2008,05,23,07,25,13.30
2008,05,23,07,26,13.40
2008,05,23,07,27,13.40
2008,05,23,07,28,13.40
2008,05,23,07,29,13.40
2008,05,23,07,30,13.40
2008,05,23,07,31,13.40
2008,05,23,07,32,13.40
2008,05,23,07,33,13.40
2008,05,23,07,34,13.40
2008,05,23,07,35,13.40
2008,05,23,07,36,13.40
2008,05,23,07,37,13.40
2008,05,23,07,38,13.40
2008,05,23,07,39,13.40
2008,05,23,07,40,13.30
2008,05,23,07,41,13.30
2008,05,23,07,42,13.40
2008,05,23,07,43,13.40
2008,05,23,07,44,13.40
2008,05,23,07,45,13.40
2008,05,23,07,46,13.40
2008,05,23,07,47,13.50
2008,05,23,07,48,13.50
2008,05,23,07,49,13.60
2008,05,23,07,50,13.70
2008,05,23,07,51,13.70
2008,05,23,07,52,13.80
2008,05,23,07,53,13.80
2008,05,23,07,54,13.90
2008,05,23,07,55,13.90
2008,05,23,07,56,14.00
2008,05,23,07,57,14.10
2008,05,23,07,58,14.20
2008,05,23,07,59,14.30
2008,05,23,08,00,14.30
2008,05,23,08,01,14.30
2008,05,23,08,02,14.40
2008,05,23,08,03,14.40
2008,05,23,08,04,14.50
2008,05,23,08,05,14.50
2008,05,23,08,06,14.60
2008,05,23,08,07,14.70
2008,05,23,08,08,14.70
2008,05,23,08,09,14.80
2008,05,23,08,10,14.90
2008,05,23,08,11,14.90
2008,05,23,08,12,15.00
2008,05,23,08,13,14.90
2008,05,23,08,14,14.90
2008,05,23,08,15,14.80
2008,05,23,08,16,14.80
2008,05,23,08,17,14.70
2008,05,23,08,18,14.60
2008,05,23,08,19,14.60
2008,05,23,08,20,14.50
2008,05,23,08,21,14.40
2008,05,23,08,22,14.30
2008,05,23,08,23,14.30
2008,05,23,08,24,14.30
2008,05,23,08,25,14.30
2008,05,23,08,26,14.30
2008,05,23,08,27,14.30
2008,05,23,08,28,14.30
2008,05,23,08,29,14.30
2008,05,23,08,30,14.30
2008,05,23,08,31,14.30
2008,05,23,08,32,14.40
2008,05,23,08,33,14.40
2008,05,23,08,34,14.40
2008,05,23,08,35,14.50
2008,05,23,08,36,14.50
2008,05,23,08,37,14.60
2008,05,23,08,38,14.60
2008,05,23,08,39,14.50
2008,05,23,08,40,14.50
2008,05,23,08,41,14.50
2008,05,23,08,42,14.40
2008,05,23,08,43,14.40
2008,05,23,08,44,14.40
2008,05,23,08,45,14.40
2008,05,23,08,46,14.30
2008,05,23,08,47,14.30
2008,05,23,08,48,14.30
2008,05,23,08,49,14.30
2008,05,23,08,50,14.30
2008,05,23,08,51,14.30
2008,05,23,08,52,14.30
2008,05,23,08,53,14.30
2008,05,23,08,54,14.20
2008,05,23,08,55,14.20
2008,05,23,08,56,14.20
2008,05,23,08,57,14.20
2008,05,23,08,58,14.20
2008,05,23,08,59,14.20
2008,05,23,09,00,14.30
2008,05,23,09,01,14.30
2008,05,23,09,02,14.30
2008,05,23,09,03,14.30
2008,05,23,09,04,14.30
2008,05,23,09,05,14.30
2008,05,23,09,06,14.30
2008,05,23,09,07,14.30
2008,05,23,09,08,14.30
2008,05,23,09,09,14.30
2008,05,23,09,10,14.30
2008,05,23,09,11,14.30
2008,05,23,09,12,14.30
2008,05,23,09,13,14.30
2008,05,23,09,14,14.30
2008,05,23,09,15,14.30
2008,05,23,09,16,14.40
2008,05,23,09,17,14.40
2008,05,23,09,18,14.40
2008,05,23,09,19,14.40
2008,05,23,09,20,14.40
2008,05,23,09,21,14.40
2008,05,23,09,22,14.40
2008,05,23,09,23,14.40
2008,05,23,09,24,14.40
2008,05,23,09,25,14.40
2008,05,23,09,26,14.40
2008,05,23,09,27,14.40
2008,05,23,09,28,14.40
2008,05,23,09,29,14.40
2008,05,23,09,30,14.30
2008,05,23,09,31,14.30
2008,05,23,09,32,14.20
2008,05,23,09,33,14.20
2008,05,23,09,34,14.20
2008,05,23,09,35,14.20
2008,05,23,09,36,14.20
2008,05,23,09,37,14.20
2008,05,23,09,38,14.20
2008,05,23,09,39,14.20
2008,05,23,09,40,14.20
2008,05,23,09,41,14.20
2008,05,23,09,42,14.20
2008,05,23,09,43,14.20
2008,05,23,09,44,14.20
2008,05,23,09,45,14.20
2008,05,23,09,46,14.20
2008,05,23,09,47,14.30
2008,05,23,09,48,14.30
2008,05,23,09,49,14.30
2008,05,23,09,50,14.30
2008,05,23,09,51,14.30
2008,05,23,09,52,14.30
2008,05,23,09,53,14.30
2008,05,23,09,54,14.30
2008,05,23,09,55,14.30
2008,05,23,09,56,14.20
2008,05,23,09,57,14.30
2008,05,23,09,58,14.30
2008,05,23,09,59,14.30
2008,05,23,10,00,14.40
2008,05,23,10,01,14.40
2008,05,23,10,02,14.40
2008,05,23,10,03,14.40
2008,05,23,10,04,14.50
2008,05,23,10,05,14.60
2008,05,23,10,06,14.70
2008,05,23,10,07,14.70
2008,05,23,10,08,14.80
2008,05,23,10,09,14.90
2008,05,23,10,10,15.00
2008,05,23,10,11,15.00
2008,05,23,10,12,15.00
2008,05,23,10,13,15.00
2008,05,23,10,14,15.00
2008,05,23,10,15,15.00
2008,05,23,10,16,15.00
2008,05,23,10,17,15.00
2008,05,23,10,18,15.10
2008,05,23,10,19,15.30
2008,05,23,10,20,15.30
2008,05,23,10,21,15.40
2008,05,23,10,22,15.50
2008,05,23,10,23,15.50
2008,05,23,10,24,15.50
2008,05,23,10,25,15.60
2008,05,23,10,26,15.60
2008,05,23,10,27,15.70
2008,05,23,10,28,15.80
2008,05,23,10,29,15.80
2008,05,23,10,30,16.00
2008,05,23,10,31,16.10
2008,05,23,10,32,16.20
2008,05,23,10,33,16.40
2008,05,23,10,34,16.50
2008,05,23,10,35,16.60
2008,05,23,10,36,16.70
2008,05,23,10,37,16.70
2008,05,23,10,38,16.60
2008,05,23,10,39,16.40
2008,05,23,10,40,16.30
2008,05,23,10,41,16.10
2008,05,23,10,42,16.00
2008,05,23,10,43,15.90
2008,05,23,10,44,15.90
2008,05,23,10,45,15.90
2008,05,23,10,46,16.00
2008,05,23,10,47,16.00
2008,05,23,10,48,16.00
2008,05,23,10,49,16.10
2008,05,23,10,50,16.10
2008,05,23,10,51,16.10
2008,05,23,10,52,16.20
2008,05,23,10,53,16.30
2008,05,23,10,54,16.40
2008,05,23,10,55,16.50
2008,05,23,10,56,16.60
2008,05,23,10,57,16.70
2008,05,23,10,58,16.70
2008,05,23,10,59,16.70
2008,05,23,11,00,16.60
2008,05,23,11,01,16.60
2008,05,23,11,02,16.60
2008,05,23,11,03,16.50
2008,05,23,11,04,16.40
2008,05,23,11,05,16.40
2008,05,23,11,06,16.40
2008,05,23,11,07,16.40
2008,05,23,11,08,16.40
2008,05,23,11,09,16.40
2008,05,23,11,10,16.50
2008,05,23,11,11,16.50
2008,05,23,11,12,16.60
2008,05,23,11,13,16.60
2008,05,23,11,14,16.70
2008,05,23,11,15,16.70
2008,05,23,11,16,16.60
2008,05,23,11,17,16.50
2008,05,23,11,18,16.40
2008,05,23,11,19,16.40
2008,05,23,11,20,16.30
2008,05,23,11,21,16.20
2008,05,23,11,22,16.20
2008,05,23,11,23,16.10
2008,05,23,11,24,16.10
2008,05,23,11,25,16.00
2008,05,23,11,26,16.10
2008,05,23,11,27,16.10
2008,05,23,11,28,16.10
2008,05,23,11,29,16.10
2008,05,23,11,30,16.10
2008,05,23,11,31,16.10
2008,05,23,11,32,16.10
2008,05,23,11,33,16.10
2008,05,23,11,34,16.10
2008,05,23,11,35,16.10
2008,05,23,11,36,16.20
2008,05,23,11,37,16.30
2008,05,23,11,38,16.40
2008,05,23,11,39,16.50
2008,05,23,11,40,16.50
2008,05,23,11,41,16.60
2008,05,23,11,42,16.70
2008,05,23,11,43,16.70
2008,05,23,11,44,16.80
2008,05,23,11,45,16.80
2008,05,23,11,46,16.80
2008,05,23,11,47,16.90
2008,05,23,11,48,16.90
2008,05,23,11,49,16.90
2008,05,23,11,50,16.90
2008,05,23,11,51,16.90
2008,05,23,11,52,16.90
2008,05,23,11,53,16.90
2008,05,23,11,54,16.80
2008,05,23,11,55,16.80
2008,05,23,11,56,16.80
2008,05,23,11,57,16.80
2008,05,23,11,58,16.90
2008,05,23,11,59,16.90
2008,05,23,12,00,16.90
2008,05,23,12,01,16.90
2008,05,23,12,02,16.90
2008,05,23,12,03,16.90
2008,05,23,12,04,16.90
2008,05,23,12,05,16.90
2008,05,23,12,06,16.90
2008,05,23,12,07,17.00
2008,05,23,12,08,17.00
2008,05,23,12,09,17.10
2008,05,23,12,10,17.20
2008,05,23,12,11,17.30
2008,05,23,12,12,17.30
2008,05,23,12,13,17.40
2008,05,23,12,14,17.40
2008,05,23,12,15,17.50
2008,05,23,12,16,17.60
2008,05,23,12,17,17.70
2008,05,23,12,18,17.80
2008,05,23,12,19,17.90
2008,05,23,12,20,18.00
2008,05,23,12,21,18.00
2008,05,23,12,22,18.00
2008,05,23,12,23,18.00
2008,05,23,12,24,18.00
2008,05,23,12,25,18.00
2008,05,23,12,26,18.00
2008,05,23,12,27,18.10
2008,05,23,12,28,18.10
2008,05,23,12,29,18.10
2008,05,23,12,30,18.10
2008,05,23,12,31,18.10
2008,05,23,12,32,18.10
2008,05,23,12,33,18.20
2008,05,23,12,34,18.20
2008,05,23,12,35,18.20
2008,05,23,12,36,18.30
2008,05,23,12,37,18.40
2008,05,23,12,38,18.50
2008,05,23,12,39,18.60
2008,05,23,12,40,18.70
2008,05,23,12,41,18.80
2008,05,23,12,42,18.90
2008,05,23,12,43,19.10
2008,05,23,12,44,19.20
2008,05,23,12,45,19.40
2008,05,23,12,46,19.50
2008,05,23,12,47,19.60
2008,05,23,12,48,19.80
2008,05,23,12,49,19.90
2008,05,23,12,50,19.90
2008,05,23,12,51,19.90
2008,05,23,12,52,19.90
2008,05,23,12,53,19.80
2008,05,23,12,54,19.80
2008,05,23,12,55,19.80
2008,05,23,12,56,19.70
2008,05,23,12,57,19.80
2008,05,23,12,58,19.80
2008,05,23,12,59,19.80
2008,05,23,13,00,19.80
2008,05,23,13,01,19.80
2008,05,23,13,02,19.90
2008,05,23,13,03,20.00
2008,05,23,13,04,20.20
2008,05,23,13,05,20.30
2008,05,23,13,06,20.50
2008,05,23,13,07,20.60
2008,05,23,13,08,20.70
2008,05,23,13,09,20.70
2008,05,23,13,10,20.70
2008,05,23,13,11,20.70
2008,05,23,13,12,20.80
2008,05,23,13,13,20.80
2008,05,23,13,14,20.80
2008,05,23,13,15,20.80
2008,05,23,13,16,20.70
2008,05,23,13,17,20.70
2008,05,23,13,18,20.70
2008,05,23,13,19,20.70
2008,05,23,13,20,20.70
2008,05,23,13,21,20.70
2008,05,23,13,22,20.60
2008,05,23,13,23,20.60
2008,05,23,13,24,20.60
2008,05,23,13,25,20.60
2008,05,23,13,26,20.60
2008,05,23,13,27,20.60
2008,05,23,13,28,20.50
2008,05,23,13,29,20.50
2008,05,23,13,30,20.40
2008,05,23,13,31,20.40
2008,05,23,13,32,20.50
2008,05,23,13,33,20.50
2008,05,23,13,34,20.40
2008,05,23,13,35,20.40
2008,05,23,13,36,20.40
2008,05,23,13,37,20.40
2008,05,23,13,38,20.40
2008,05,23,13,39,20.30
2008,05,23,13,40,20.30
2008,05,23,13,41,20.30
2008,05,23,13,42,20.40
2008,05,23,13,43,20.40
2008,05,23,13,44,20.50
2008,05,23,13,45,20.50
2008,05,23,13,46,20.50
2008,05,23,13,47,20.40
2008,05,23,13,48,20.30
2008,05,23,13,49,20.10
2008,05,23,13,50,20.00
2008,05,23,13,51,20.00
2008,05,23,13,52,19.90
2008,05,23,13,53,20.00
2008,05,23,13,54,20.00
2008,05,23,13,55,20.00
2008,05,23,13,56,20.00
2008,05,23,13,57,20.10
2008,05,23,13,58,20.10
2008,05,23,13,59,20.20
2008,05,23,14,00,20.20
2008,05,23,14,01,20.30
2008,05,23,14,02,20.30
2008,05,23,14,03,20.30
2008,05,23,14,04,20.30
2008,05,23,14,05,20.30
2008,05,23,14,06,20.30
2008,05,23,14,07,20.30
2008,05,23,14,08,20.30
2008,05,23,14,09,20.30
2008,05,23,14,10,20.30
2008,05,23,14,11,20.30
2008,05,23,14,12,20.30
2008,05,23,14,13,20.30
2008,05,23,14,14,20.30
2008,05,23,14,15,20.20
2008,05,23,14,16,20.20
2008,05,23,14,17,20.20
2008,05,23,14,18,20.20
2008,05,23,14,19,20.20
2008,05,23,14,20,20.20
2008,05,23,14,21,20.20
2008,05,23,14,22,20.20
2008,05,23,14,23,20.20
2008,05,23,14,24,20.20
2008,05,23,14,25,20.20
2008,05,23,14,26,20.20
2008,05,23,14,27,20.20
2008,05,23,14,28,20.10
2008,05,23,14,29,20.00
2008,05,23,14,30,19.90
2008,05,23,14,31,19.80
2008,05,23,14,32,19.70
2008,05,23,14,33,19.60
2008,05,23,14,34,19.60
2008,05,23,14,35,19.50
2008,05,23,14,36,19.40
2008,05,23,14,37,19.40
2008,05,23,14,38,19.30
2008,05,23,14,39,19.30
2008,05,23,14,40,19.30
2008,05,23,14,41,19.30
2008,05,23,14,42,19.20
2008,05,23,14,43,19.20
2008,05,23,14,44,19.10
2008,05,23,14,45,19.20
2008,05,23,14,46,19.20
2008,05,23,14,47,19.20
2008,05,23,14,48,19.20
2008,05,23,14,49,19.20
2008,05,23,14,50,19.20
2008,05,23,14,51,19.20
2008,05,23,14,52,19.20
2008,05,23,14,53,19.20
2008,05,23,14,54,19.20
2008,05,23,14,55,19.20
2008,05,23,14,56,19.20
2008,05,23,14,57,19.20
2008,05,23,14,58,19.20
2008,05,23,14,59,19.10
2008,05,23,15,00,19.10
2008,05,23,15,01,19.10
2008,05,23,15,02,19.10
2008,05,23,15,03,19.10
2008,05,23,15,04,19.10
2008,05,23,15,05,19.20
2008,05,23,15,06,19.20
2008,05,23,15,07,19.10
2008,05,23,15,08,19.10
2008,05,23,15,09,19.10
2008,05,23,15,10,19.10
2008,05,23,15,11,19.10
2008,05,23,15,12,19.10
2008,05,23,15,13,19.10
2008,05,23,15,14,19.10
2008,05,23,15,15,19.10
2008,05,23,15,16,19.10
2008,05,23,15,17,19.10
2008,05,23,15,18,19.10
2008,05,23,15,19,19.10
2008,05,23,15,20,19.10
2008,05,23,15,21,19.10
2008,05,23,15,22,19.10
2008,05,23,15,23,19.10
2008,05,23,15,24,19.20
2008,05,23,15,25,19.20
2008,05,23,15,26,19.20
2008,05,23,15,27,19.20
2008,05,23,15,28,19.20
2008,05,23,15,29,19.30
2008,05,23,15,30,19.30
2008,05,23,15,31,19.30
2008,05,23,15,32,19.30
2008,05,23,15,33,19.30
2008,05,23,15,34,19.30
2008,05,23,15,35,19.30
2008,05,23,15,36,19.20
2008,05,23,15,37,19.20
2008,05,23,15,38,19.20
2008,05,23,15,39,19.20
2008,05,23,15,40,19.20
2008,05,23,15,41,19.20
2008,05,23,15,42,19.20
2008,05,23,15,43,19.20
2008,05,23,15,44,19.20
2008,05,23,15,45,19.20
2008,05,23,15,46,19.20
2008,05,23,15,47,19.20
2008,05,23,15,48,19.20
2008,05,23,15,49,19.20
2008,05,23,15,50,19.20
2008,05,23,15,51,19.20
2008,05,23,15,52,19.20
2008,05,23,15,53,19.20
2008,05,23,15,54,19.20
2008,05,23,15,55,19.20
2008,05,23,15,56,19.20
2008,05,23,15,57,19.20
2008,05,23,15,58,19.20
2008,05,23,15,59,19.20
2008,05,23,16,00,19.30
2008,05,23,16,01,19.30
2008,05,23,16,02,19.30
2008,05,23,16,03,19.30
2008,05,23,16,04,19.30
2008,05,23,16,05,19.30
2008,05,23,16,06,19.30
2008,05,23,16,07,19.30
2008,05,23,16,08,19.30
2008,05,23,16,09,19.30
2008,05,23,16,10,19.30
2008,05,23,16,11,19.30
2008,05,23,16,12,19.30
2008,05,23,16,13,19.30
2008,05,23,16,14,19.30
2008,05,23,16,15,19.30
2008,05,23,16,16,19.30
2008,05,23,16,17,19.30
2008,05,23,16,18,19.30
2008,05,23,16,19,19.30
2008,05,23,16,20,19.30
2008,05,23,16,21,19.30
2008,05,23,16,22,19.30
2008,05,23,16,23,19.30
2008,05,23,16,24,19.30
2008,05,23,16,25,19.30
2008,05,23,16,26,19.30
2008,05,23,16,27,19.40
2008,05,23,16,28,19.40
2008,05,23,16,29,19.40
2008,05,23,16,30,19.40
2008,05,23,16,31,19.50
2008,05,23,16,32,19.40
2008,05,23,16,33,19.40
2008,05,23,16,34,19.30
2008,05,23,16,35,19.30
2008,05,23,16,36,19.30
2008,05,23,16,37,19.20
2008,05,23,16,38,19.10
2008,05,23,16,39,18.90
2008,05,23,16,40,18.60
2008,05,23,16,41,18.40
2008,05,23,16,42,18.30
2008,05,23,16,43,18.20
2008,05,23,16,44,18.10
2008,05,23,16,45,18.00
2008,05,23,16,46,17.90
2008,05,23,16,47,17.80
2008,05,23,16,48,17.80
2008,05,23,16,49,17.70
2008,05,23,16,50,17.70
2008,05,23,16,51,17.70
2008,05,23,16,52,17.70
2008,05,23,16,53,17.70
2008,05,23,16,54,17.70
2008,05,23,16,55,17.70
2008,05,23,16,56,17.70
2008,05,23,16,57,17.70
2008,05,23,16,58,17.70
2008,05,23,16,59,17.80
2008,05,23,17,00,17.80
2008,05,23,17,01,17.80
2008,05,23,17,02,17.90
2008,05,23,17,03,17.90
2008,05,23,17,04,17.90
2008,05,23,17,05,17.90
2008,05,23,17,06,17.90
2008,05,23,17,07,17.90
2008,05,23,17,08,17.90
2008,05,23,17,09,17.90
2008,05,23,17,10,17.90
2008,05,23,17,11,17.90
2008,05,23,17,12,17.90
2008,05,23,17,13,17.90
2008,05,23,17,14,17.90
2008,05,23,17,15,17.90
2008,05,23,17,16,17.90
2008,05,23,17,17,17.90
2008,05,23,17,18,17.90
2008,05,23,17,19,17.90